DUCHIFAT-3

Last updated on Thu Oct 30 2025 00:03:10 GMT+0000 (Coordinated Universal Time)

1 44854U 19089C 25302.30133854 .00231405 00000+0 17662-2 0 9999 2 44854 36.9320 163.0254 0009690 315.9025 44.0966 15.70508838325082
UTC large
Height (km)
Speed (km/s)
/
Latitude / Longitude
Inclination (degrees)
Orbital Period (minutes)
Azimuth
Elevation
Range (km)
Doppler Factor

Next 0 passes for location: London (51.5072 / 0.1276)

Sorry there are no passes over London.